Location: Oak Glen
(34.0495°N, 116.9470°E)
Time: 23:14:07
(UTC-08:00)

Envisat - Pass Details

Date: 08 October 2017
Orbit: 764 x 766 km, 98.2° (Epoch: 12 December)

Event Time Altitude Azimuth Distance (km) Brightness Sun altitude
Exits shadow 05:59:59 19° 307° (NW) 1,779 5.4 -40.0°
Drops below altitude 10° 06:01:45 10° 322° (NW) 2,304 6.0 -40.3°
Sets 06:04:22 0° 334° (NNW) 3,235 6.8 -40.8°
